Tracking 33195 objects as of 8-Feb-2026
HD Live streaming from Space Station
objects crossing your sky now

STARLINK-36412

Track STARLINK-36412 now!
10-day predictions
STARLINK-36412 is classified as:


NORAD ID: 67518
Int'l Code: 2026-012AB
Perigee: 383.8 km
Apogee: 385.6 km
Inclination: 43.0 °
Period: 92.1 minutes
Semi major axis: 6755 km
RCS: Unknown
Launch date: January 18, 2026
Source: United States (US)
Launch site: AIR FORCE EASTERN TEST RANGE (AFETR)
Your satellite tracking list
Your tracking list is empty




NASA's NSSDC Master Catalog

Two Line Element Set (TLE):
1 67518U 26012AB  26039.25002315 -.01921196  00000-0 -22852-1 0  9997
2 67518  42.9992 122.0124 0001344 271.8589  92.7054 15.63483963  4287
Source of the keplerian elements: AFSPC